Location: Vihti�l�
(61.3833°N, 23.0667°E)
Time: 05:15:28
(UTC+00:00)

RESURS DK-1 - Pass Details

Date: 29 November 2020
Orbit: 557 x 560 km, 69.9° (Epoch: 22 January)

Event Time Altitude Azimuth Distance (km) Brightness Sun altitude
Rises 04:30:11 0° 206° (SSW) 2,745 5.8 -17.2°
Reaches altitude 10° 04:32:25 10° 202° (SSW) 1,853 4.9 -16.9°
Maximum altitude 04:36:27 53° 126° (SE) 697 3.2 -16.4°
Drops below altitude 10° 04:40:30 10° 49° (NE) 1,865 5.5 -16.0°
Sets 04:42:45 0° 45° (NE) 2,765 6.3 -15.7°
